EZY794E EGKK-EGAA

Flight info

Callsign EZY794E
Flight time 1h 18m
Altitude 36000
Route LAM L10 BPK UN601 LESTA UP6 RODOL UM65 TENSO L603 BELOX DCT REMSI DCT UVPOK M147 ROBOP M146 IPSET P6 BELZU
Aircraft A320/M-SDE2E3FGHIJ1RWXYZ/LB1

Departure

Time 2026-04-17 10:18
Airport London Gatwick Airport (EGKK)

Arrival

Time 2026-04-17 11:37
Airport Belfast International Airport (EGAA)
Time Latitude Longitude Altitude Speed Heading
2026-04-17 09:31 51.15817 -0.17952 213 ft 0 kts 78°
2026-04-17 09:39 51.15816 -0.17961 214 ft 0 kts 78°
2026-04-17 09:40 51.15817 -0.17951 205 ft 0 kts 78°
2026-04-17 09:40 51.15838 -0.17958 212 ft 0 kts 78°
2026-04-17 09:40 51.15817 -0.17952 205 ft 0 kts 78°
2026-04-17 10:05 51.15816 -0.17955 205 ft 2 kts 78°
2026-04-17 10:05 51.15811 -0.17996 209 ft 4 kts 78°
2026-04-17 10:06 51.15806 -0.18036 214 ft 4 kts 99°
2026-04-17 10:06 51.15817 -0.18070 215 ft 4 kts 149°
2026-04-17 10:06 51.15836 -0.18081 212 ft 4 kts 168°
2026-04-17 10:06 51.15850 -0.18086 212 ft 0 kts 168°
2026-04-17 10:11 51.15847 -0.18085 213 ft 2 kts 168°
2026-04-17 10:11 51.15826 -0.18078 205 ft 4 kts 168°
2026-04-17 10:11 51.15778 -0.18062 208 ft 9 kts 168°
2026-04-17 10:12 51.15714 -0.18036 212 ft 9 kts 156°
2026-04-17 10:12 51.15696 -0.17985 205 ft 3 kts 89°
2026-04-17 10:12 51.15704 -0.17924 208 ft 10 kts 76°
2026-04-17 10:12 51.15717 -0.17834 205 ft 6 kts 78°
2026-04-17 10:13 51.15724 -0.17782 210 ft 4 kts 78°
2026-04-17 10:13 51.15733 -0.17717 205 ft 8 kts 77°
2026-04-17 10:13 51.15748 -0.17608 205 ft 12 kts 78°
2026-04-17 10:13 51.15745 -0.17519 215 ft 7 kts 128°
2026-04-17 10:14 51.15698 -0.17495 213 ft 8 kts 168°
2026-04-17 10:14 51.15632 -0.17472 214 ft 11 kts 168°
2026-04-17 10:14 51.15552 -0.17445 214 ft 13 kts 167°
2026-04-17 10:14 51.15461 -0.17413 205 ft 14 kts 168°
2026-04-17 10:15 51.15362 -0.17379 214 ft 15 kts 168°
2026-04-17 10:15 51.15266 -0.17343 208 ft 11 kts 157°
2026-04-17 10:15 51.15202 -0.17271 211 ft 11 kts 144°
2026-04-17 10:15 51.15185 -0.17170 208 ft 9 kts 77°
2026-04-17 10:16 51.15199 -0.17075 208 ft 8 kts 77°
2026-04-17 10:16 51.15210 -0.16991 205 ft 7 kts 77°
2026-04-17 10:16 51.15220 -0.16921 211 ft 6 kts 77°
2026-04-17 10:16 51.15221 -0.16850 209 ft 9 kts 104°
2026-04-17 10:17 51.15160 -0.16797 208 ft 11 kts 181°
2026-04-17 10:17 51.15116 -0.16866 212 ft 10 kts 255°
2026-04-17 10:17 51.15094 -0.17014 209 ft 28 kts 257°
2026-04-17 10:17 51.14998 -0.17707 215 ft 95 kts 258°
2026-04-17 10:18 51.14814 -0.19040 213 ft 148 kts 258°
2026-04-17 10:18 51.14598 -0.20778 572 ft 163 kts 257°
2026-04-17 10:18 51.14377 -0.22576 1193 ft 168 kts 256°
2026-04-17 10:18 51.14131 -0.24417 1712 ft 181 kts 256°
2026-04-17 10:19 51.13841 -0.26480 2088 ft 203 kts 255°
2026-04-17 10:19 51.13784 -0.28822 2690 ft 219 kts 282°
2026-04-17 10:19 51.14544 -0.30960 3532 ft 231 kts 310°
2026-04-17 10:19 51.15970 -0.32228 3909 ft 243 kts 346°
2026-04-17 10:20 51.17633 -0.31974 4000 ft 250 kts 22°
2026-04-17 10:20 51.18952 -0.30239 4007 ft 249 kts 60°
2026-04-17 10:20 51.19500 -0.27663 4017 ft 248 kts 82°
2026-04-17 10:20 51.19820 -0.24959 4011 ft 248 kts 82°
2026-04-17 10:21 51.20135 -0.22255 4012 ft 248 kts 82°
2026-04-17 10:21 51.20455 -0.19523 4019 ft 261 kts 82°
2026-04-17 10:21 51.20815 -0.16572 4010 ft 277 kts 81°
2026-04-17 10:21 51.21201 -0.13532 4160 ft 285 kts 80°
2026-04-17 10:22 51.21608 -0.10415 4815 ft 288 kts 80°
2026-04-17 10:22 51.22022 -0.07308 4971 ft 285 kts 80°
2026-04-17 10:22 51.22435 -0.04217 5005 ft 285 kts 80°
2026-04-17 10:22 51.22844 -0.01131 5007 ft 284 kts 80°
2026-04-17 10:23 51.23250 0.01948 4848 ft 285 kts 80°
2026-04-17 10:23 51.23653 0.05046 4828 ft 285 kts 80°
2026-04-17 10:23 51.24055 0.08143 4802 ft 285 kts 80°
2026-04-17 10:23 51.24456 0.11243 4774 ft 285 kts 80°
2026-04-17 10:24 51.24851 0.14340 4751 ft 285 kts 80°
2026-04-17 10:24 51.25246 0.17436 4726 ft 285 kts 80°
2026-04-17 10:24 51.25643 0.20538 4704 ft 285 kts 80°
2026-04-17 10:24 51.26020 0.23643 4682 ft 285 kts 81°
2026-04-17 10:25 51.26385 0.26748 4662 ft 285 kts 81°
2026-04-17 10:25 51.26748 0.29856 4643 ft 285 kts 81°
2026-04-17 10:25 51.27138 0.32949 4628 ft 285 kts 75°
2026-04-17 10:25 51.28128 0.35669 4635 ft 286 kts 43°
2026-04-17 10:26 51.29810 0.37238 4651 ft 281 kts 11°
2026-04-17 10:26 51.31719 0.37298 4682 ft 273 kts 341°
2026-04-17 10:26 51.33481 0.36235 5021 ft 270 kts 333°
2026-04-17 10:26 51.35223 0.35064 5007 ft 271 kts 333°
2026-04-17 10:27 51.36976 0.33883 5575 ft 274 kts 333°
2026-04-17 10:27 51.38728 0.32704 6573 ft 273 kts 334°
2026-04-17 10:27 51.40490 0.31524 7439 ft 275 kts 334°
2026-04-17 10:27 51.42268 0.30333 8236 ft 280 kts 333°
2026-04-17 10:28 51.44080 0.29110 9006 ft 284 kts 333°
2026-04-17 10:28 51.45465 0.28171 9626 ft 287 kts 333°
2026-04-17 10:28 51.47316 0.26917 10368 ft 292 kts 333°
2026-04-17 10:28 51.49257 0.25595 10662 ft 314 kts 333°
2026-04-17 10:29 51.51326 0.24182 11052 ft 329 kts 333°
2026-04-17 10:29 51.53429 0.22752 11698 ft 335 kts 333°
2026-04-17 10:29 51.55594 0.21287 12405 ft 340 kts 333°
2026-04-17 10:29 51.57789 0.19802 13112 ft 344 kts 333°
2026-04-17 10:30 51.60040 0.18276 13811 ft 349 kts 333°
2026-04-17 10:30 51.62266 0.16676 14420 ft 351 kts 327°
2026-04-17 10:30 51.64256 0.14516 15015 ft 349 kts 315°
2026-04-17 10:30 51.65961 0.11702 15629 ft 346 kts 303°
2026-04-17 10:31 51.67294 0.08546 16238 ft 346 kts 298°
2026-04-17 10:31 51.68603 0.05269 16851 ft 349 kts 298°
2026-04-17 10:31 51.69925 0.01961 17456 ft 353 kts 298°
2026-04-17 10:31 51.71259 -0.01376 18010 ft 356 kts 297°
2026-04-17 10:32 51.72625 -0.04796 18552 ft 360 kts 297°
2026-04-17 10:32 51.74014 -0.08113 19060 ft 366 kts 303°
2026-04-17 10:32 51.75792 -0.11114 19590 ft 375 kts 314°
2026-04-17 10:32 51.77950 -0.13561 19979 ft 384 kts 323°
2026-04-17 10:33 51.80256 -0.15754 20072 ft 384 kts 324°
2026-04-17 10:33 51.82564 -0.17932 20169 ft 385 kts 324°
2026-04-17 10:33 51.84875 -0.20110 20163 ft 384 kts 324°
2026-04-17 10:33 51.87188 -0.22296 20242 ft 387 kts 324°
2026-04-17 10:34 51.89514 -0.24506 20828 ft 388 kts 323°
2026-04-17 10:34 51.91848 -0.26737 21359 ft 391 kts 323°
2026-04-17 10:34 51.94195 -0.28988 21900 ft 393 kts 323°
2026-04-17 10:34 51.96557 -0.31257 22425 ft 396 kts 323°
2026-04-17 10:35 51.98934 -0.33546 22942 ft 399 kts 322°
2026-04-17 10:35 52.01327 -0.35853 23461 ft 401 kts 322°
2026-04-17 10:35 52.03736 -0.38175 23905 ft 404 kts 322°
2026-04-17 10:35 52.06161 -0.40508 24348 ft 406 kts 322°
2026-04-17 10:36 52.08600 -0.42851 24774 ft 408 kts 322°
2026-04-17 10:36 52.11047 -0.45205 25196 ft 410 kts 322°
2026-04-17 10:36 52.13495 -0.47572 25608 ft 411 kts 322°
2026-04-17 10:36 52.15957 -0.49960 26014 ft 413 kts 322°
2026-04-17 10:37 52.18428 -0.52360 26411 ft 414 kts 322°
2026-04-17 10:37 52.20906 -0.54770 26798 ft 416 kts 322°
2026-04-17 10:37 52.23403 -0.57198 27176 ft 417 kts 322°
2026-04-17 10:37 52.25902 -0.59628 27544 ft 419 kts 322°
2026-04-17 10:38 52.28408 -0.62073 27937 ft 421 kts 322°
2026-04-17 10:38 52.30926 -0.64536 28275 ft 423 kts 322°
2026-04-17 10:38 52.33457 -0.67014 28619 ft 425 kts 322°
2026-04-17 10:38 52.35995 -0.69501 28958 ft 427 kts 322°
2026-04-17 10:39 52.38549 -0.72002 29290 ft 429 kts 322°
2026-04-17 10:39 52.41112 -0.74515 29619 ft 430 kts 322°
2026-04-17 10:39 52.43687 -0.77039 29935 ft 432 kts 322°
2026-04-17 10:39 52.46267 -0.79576 30248 ft 433 kts 321°
2026-04-17 10:40 52.48854 -0.82127 30509 ft 435 kts 321°
2026-04-17 10:40 52.51447 -0.84683 30775 ft 436 kts 321°
2026-04-17 10:40 52.54049 -0.87255 31044 ft 437 kts 321°
2026-04-17 10:40 52.56654 -0.89837 31296 ft 438 kts 321°
2026-04-17 10:41 52.59262 -0.92428 31596 ft 438 kts 321°
2026-04-17 10:41 52.61864 -0.95012 31941 ft 436 kts 321°
2026-04-17 10:41 52.64451 -0.97583 32313 ft 434 kts 321°
2026-04-17 10:41 52.66162 -0.99282 32560 ft 432 kts 321°
2026-04-17 10:42 52.69564 -1.02668 33044 ft 431 kts 320°
2026-04-17 10:42 52.71297 -1.04398 33266 ft 430 kts 320°
2026-04-17 10:42 52.74550 -1.08008 33741 ft 419 kts 311°
2026-04-17 10:42 52.76000 -1.10156 34002 ft 413 kts 308°
2026-04-17 10:43 52.78756 -1.14488 34388 ft 412 kts 308°
2026-04-17 10:43 52.80160 -1.16697 34551 ft 412 kts 308°
2026-04-17 10:43 52.82236 -1.19965 34777 ft 413 kts 308°
2026-04-17 10:43 52.84320 -1.23238 34994 ft 413 kts 308°
2026-04-17 10:44 52.86403 -1.26511 35207 ft 413 kts 308°
2026-04-17 10:44 52.88488 -1.29790 35418 ft 413 kts 308°
2026-04-17 10:44 52.90569 -1.33073 35629 ft 413 kts 308°
2026-04-17 10:44 52.92647 -1.36361 35825 ft 414 kts 308°
2026-04-17 10:45 52.94728 -1.39656 36017 ft 414 kts 308°
2026-04-17 10:45 52.98872 -1.46224 36082 ft 409 kts 308°
2026-04-17 10:46 53.02979 -1.52751 36111 ft 408 kts 307°
2026-04-17 10:46 53.07085 -1.59319 36077 ft 410 kts 307°
2026-04-17 10:47 53.11202 -1.65908 36076 ft 411 kts 307°
2026-04-17 10:47 53.15290 -1.72463 36069 ft 411 kts 307°
2026-04-17 10:48 53.19405 -1.79086 36071 ft 411 kts 307°
2026-04-17 10:48 53.23584 -1.85617 36069 ft 417 kts 314°
2026-04-17 10:49 53.28619 -1.90766 36076 ft 427 kts 322°
2026-04-17 10:49 53.33793 -1.95658 36070 ft 427 kts 322°
2026-04-17 10:50 53.38965 -2.00571 36068 ft 427 kts 322°
2026-04-17 10:50 53.44134 -2.05496 36058 ft 427 kts 322°
2026-04-17 10:51 53.49312 -2.10432 36053 ft 429 kts 321°
2026-04-17 10:51 53.54499 -2.15405 36040 ft 430 kts 321°
2026-04-17 10:51 53.56965 -2.18153 36036 ft 419 kts 311°
2026-04-17 10:52 53.59054 -2.21474 36034 ft 408 kts 302°
2026-04-17 10:52 53.62026 -2.29339 36020 ft 390 kts 285°
2026-04-17 10:53 53.63959 -2.37741 36019 ft 388 kts 283°
2026-04-17 10:53 53.65912 -2.46233 36023 ft 389 kts 283°
2026-04-17 10:54 53.67853 -2.54746 36016 ft 389 kts 283°
2026-04-17 10:54 53.69780 -2.63280 36063 ft 390 kts 283°
2026-04-17 10:55 53.71709 -2.71833 36036 ft 391 kts 281°
2026-04-17 10:55 53.73641 -2.80425 35985 ft 393 kts 282°
2026-04-17 10:56 53.75583 -2.89091 35980 ft 395 kts 282°
2026-04-17 10:56 53.77532 -2.97795 35981 ft 397 kts 282°
2026-04-17 10:57 53.79477 -3.06535 35984 ft 397 kts 281°
2026-04-17 10:57 53.81417 -3.15300 36015 ft 398 kts 281°
2026-04-17 10:57 53.82391 -3.19708 35909 ft 402 kts 281°
2026-04-17 10:58 53.83365 -3.24135 35472 ft 401 kts 281°
2026-04-17 10:58 53.84339 -3.28547 35009 ft 397 kts 280°
2026-04-17 10:58 53.85299 -3.32894 34526 ft 393 kts 279°
2026-04-17 10:58 53.86246 -3.37211 34054 ft 389 kts 279°
2026-04-17 10:59 53.87176 -3.41488 33545 ft 385 kts 279°
2026-04-17 10:59 53.88094 -3.45715 33079 ft 380 kts 279°
2026-04-17 10:59 53.89001 -3.49885 32608 ft 375 kts 279°
2026-04-17 10:59 53.89898 -3.54019 32149 ft 371 kts 279°
2026-04-17 11:00 53.90784 -3.58111 31688 ft 368 kts 279°
2026-04-17 11:00 53.91659 -3.62163 31240 ft 364 kts 279°
2026-04-17 11:00 53.92512 -3.66127 30806 ft 361 kts 279°
2026-04-17 11:00 53.93367 -3.70113 30394 ft 359 kts 278°
2026-04-17 11:01 53.94216 -3.74083 29946 ft 357 kts 279°
2026-04-17 11:01 53.95059 -3.78022 29484 ft 354 kts 279°
2026-04-17 11:01 53.95867 -3.81925 29064 ft 345 kts 275°
2026-04-17 11:01 53.96336 -3.85820 28688 ft 331 kts 268°
2026-04-17 11:02 53.96679 -3.89657 28316 ft 326 kts 268°
2026-04-17 11:02 53.97019 -3.93442 27948 ft 322 kts 268°
2026-04-17 11:02 53.97352 -3.97166 27574 ft 317 kts 268°
2026-04-17 11:02 53.97678 -4.00837 27205 ft 312 kts 268°
2026-04-17 11:03 53.98000 -4.04463 26834 ft 309 kts 268°
2026-04-17 11:03 53.98316 -4.08066 26466 ft 308 kts 268°
2026-04-17 11:03 53.98628 -4.11653 26101 ft 306 kts 268°
2026-04-17 11:03 53.98939 -4.15229 25714 ft 305 kts 268°
2026-04-17 11:04 53.99322 -4.18793 25321 ft 310 kts 275°
2026-04-17 11:04 54.00095 -4.22270 24953 ft 321 kts 287°
2026-04-17 11:04 54.01311 -4.25551 24477 ft 332 kts 295°
2026-04-17 11:04 54.02652 -4.28741 24033 ft 331 kts 295°
2026-04-17 11:05 54.03986 -4.31939 23585 ft 331 kts 295°
2026-04-17 11:05 54.05314 -4.35145 23083 ft 331 kts 295°
2026-04-17 11:05 54.06634 -4.38344 22637 ft 330 kts 295°
2026-04-17 11:05 54.07949 -4.41530 22199 ft 328 kts 295°
2026-04-17 11:06 54.09257 -4.44705 21783 ft 326 kts 295°
2026-04-17 11:06 54.10557 -4.47861 21395 ft 324 kts 295°
2026-04-17 11:06 54.11849 -4.51000 21011 ft 322 kts 295°
2026-04-17 11:06 54.13132 -4.54122 20614 ft 321 kts 295°
2026-04-17 11:07 54.14409 -4.57237 20208 ft 320 kts 295°
2026-04-17 11:07 54.15681 -4.60342 19823 ft 319 kts 295°
2026-04-17 11:07 54.16951 -4.63443 19440 ft 318 kts 296°
2026-04-17 11:07 54.18218 -4.66539 19046 ft 317 kts 296°
2026-04-17 11:08 54.19481 -4.69626 18669 ft 317 kts 296°
2026-04-17 11:08 54.20739 -4.72707 18295 ft 316 kts 296°
2026-04-17 11:08 54.21996 -4.75784 17883 ft 315 kts 296°
2026-04-17 11:08 54.23247 -4.78849 17528 ft 314 kts 295°
2026-04-17 11:09 54.24491 -4.81901 17133 ft 312 kts 295°
2026-04-17 11:09 54.25729 -4.84944 16760 ft 311 kts 295°
2026-04-17 11:09 54.26943 -4.87934 16402 ft 309 kts 295°
2026-04-17 11:10 54.29388 -4.93962 15693 ft 307 kts 295°
2026-04-17 11:10 54.30603 -4.96961 15328 ft 306 kts 295°
2026-04-17 11:10 54.31815 -4.99955 14975 ft 305 kts 295°
2026-04-17 11:10 54.33022 -5.02947 14620 ft 305 kts 295°
2026-04-17 11:11 54.34221 -5.05932 14261 ft 304 kts 295°
2026-04-17 11:11 54.35415 -5.08917 13909 ft 303 kts 295°
2026-04-17 11:11 54.36609 -5.11899 13531 ft 303 kts 295°
2026-04-17 11:11 54.37804 -5.14872 13150 ft 302 kts 295°
2026-04-17 11:12 54.38992 -5.17827 12814 ft 300 kts 296°
2026-04-17 11:12 54.40174 -5.20773 12431 ft 299 kts 296°
2026-04-17 11:12 54.41349 -5.23709 12070 ft 298 kts 296°
2026-04-17 11:12 54.42513 -5.26631 11705 ft 296 kts 296°
2026-04-17 11:13 54.43673 -5.29547 11333 ft 295 kts 296°
2026-04-17 11:13 54.44828 -5.32442 10963 ft 293 kts 297°
2026-04-17 11:13 54.46159 -5.35140 10586 ft 299 kts 307°
2026-04-17 11:13 54.47603 -5.37704 10218 ft 298 kts 307°
2026-04-17 11:14 54.49032 -5.40243 9921 ft 294 kts 307°
2026-04-17 11:14 54.50453 -5.42773 9564 ft 292 kts 307°
2026-04-17 11:14 54.51844 -5.45312 9130 ft 288 kts 303°
2026-04-17 11:14 54.53028 -5.48048 8696 ft 285 kts 299°
2026-04-17 11:15 54.54185 -5.50776 8365 ft 281 kts 300°
2026-04-17 11:15 54.55338 -5.53489 7998 ft 278 kts 299°
2026-04-17 11:15 54.56482 -5.56187 7595 ft 277 kts 299°
2026-04-17 11:15 54.57614 -5.58860 7163 ft 277 kts 299°
2026-04-17 11:16 54.58748 -5.61539 6823 ft 274 kts 299°
2026-04-17 11:16 54.59834 -5.64085 6686 ft 253 kts 299°
2026-04-17 11:16 54.60853 -5.66416 6454 ft 239 kts 304°
2026-04-17 11:16 54.62118 -5.68252 5988 ft 242 kts 317°
2026-04-17 11:17 54.63525 -5.69917 5387 ft 243 kts 319°
2026-04-17 11:17 54.64909 -5.71519 4890 ft 242 kts 319°
2026-04-17 11:17 54.66304 -5.73135 4396 ft 240 kts 319°
2026-04-17 11:17 54.67688 -5.74726 3965 ft 236 kts 319°
2026-04-17 11:18 54.69067 -5.76293 4021 ft 240 kts 319°
2026-04-17 11:18 54.70466 -5.77889 4030 ft 241 kts 319°
2026-04-17 11:18 54.71847 -5.79471 4026 ft 231 kts 319°
2026-04-17 11:18 54.73153 -5.80944 3966 ft 219 kts 318°
2026-04-17 11:19 54.74197 -5.82652 3847 ft 197 kts 294°
2026-04-17 11:19 54.74737 -5.84688 3697 ft 179 kts 274°
2026-04-17 11:19 54.74838 -5.86740 3503 ft 166 kts 256°
2026-04-17 11:19 54.74551 -5.88614 3246 ft 158 kts 240°
2026-04-17 11:20 54.74094 -5.90331 3062 ft 157 kts 240°
2026-04-17 11:20 54.73636 -5.92054 3038 ft 158 kts 240°
2026-04-17 11:20 54.73178 -5.93779 3032 ft 158 kts 240°
2026-04-17 11:20 54.72717 -5.95514 3025 ft 160 kts 240°
2026-04-17 11:21 54.72253 -5.97257 3009 ft 157 kts 240°
2026-04-17 11:21 54.71812 -5.98921 2879 ft 147 kts 240°
2026-04-17 11:21 54.71396 -6.00486 2726 ft 141 kts 240°
2026-04-17 11:21 54.70987 -6.02015 2557 ft 140 kts 239°
2026-04-17 11:22 54.70579 -6.03545 2352 ft 140 kts 240°
2026-04-17 11:22 54.70168 -6.05081 2149 ft 141 kts 240°
2026-04-17 11:22 54.69756 -6.06624 1948 ft 142 kts 239°
2026-04-17 11:22 54.69343 -6.08169 1759 ft 142 kts 239°
2026-04-17 11:23 54.68927 -6.09726 1561 ft 143 kts 238°
2026-04-17 11:23 54.68529 -6.11217 1386 ft 136 kts 239°
2026-04-17 11:23 54.68147 -6.12689 1171 ft 137 kts 237°
2026-04-17 11:23 54.67778 -6.14167 1026 ft 133 kts 237°
2026-04-17 11:24 54.67394 -6.15661 823 ft 136 kts 229°
2026-04-17 11:24 54.67018 -6.17124 721 ft 133 kts 225°
2026-04-17 11:24 54.66593 -6.18548 499 ft 134 kts 225°
2026-04-17 11:24 54.66184 -6.20001 294 ft 133 kts 226°
2026-04-17 11:25 54.65835 -6.21326 323 ft 123 kts 231°
2026-04-17 11:25 54.65431 -6.22835 649 ft 152 kts 239°
2026-04-17 11:25 54.64896 -6.24494 1090 ft 167 kts 236°
2026-04-17 11:25 54.64244 -6.26321 1548 ft 180 kts 233°
2026-04-17 11:26 54.63556 -6.28215 1853 ft 195 kts 234°
2026-04-17 11:26 54.62843 -6.30256 2096 ft 201 kts 236°
2026-04-17 11:26 54.62126 -6.32328 2359 ft 201 kts 236°
2026-04-17 11:26 54.61426 -6.34372 2477 ft 201 kts 239°
2026-04-17 11:27 54.61211 -6.36761 2511 ft 214 kts 277°
2026-04-17 11:27 54.62081 -6.38970 2508 ft 235 kts 320°
2026-04-17 11:27 54.63664 -6.39763 2516 ft 251 kts
2026-04-17 11:27 54.65292 -6.38693 2513 ft 257 kts 42°
2026-04-17 11:28 54.66227 -6.36179 2503 ft 247 kts 84°
2026-04-17 11:28 54.66355 -6.33272 2515 ft 242 kts 95°
2026-04-17 11:28 54.66390 -6.30365 2505 ft 242 kts 95°
2026-04-17 11:28 54.66567 -6.27466 2499 ft 249 kts 76°
2026-04-17 11:29 54.67309 -6.24718 2511 ft 255 kts 65°
2026-04-17 11:29 54.68303 -6.22154 2514 ft 257 kts 53°
2026-04-17 11:29 54.69484 -6.19849 2508 ft 255 kts 49°
2026-04-17 11:29 54.70701 -6.17623 2519 ft 256 kts 49°
2026-04-17 11:30 54.71937 -6.15383 2511 ft 259 kts 49°
2026-04-17 11:30 54.73180 -6.13127 2506 ft 258 kts 48°
2026-04-17 11:30 54.74410 -6.10885 2496 ft 256 kts 49°
2026-04-17 11:30 54.75536 -6.08509 2512 ft 255 kts 60°
2026-04-17 11:31 54.76154 -6.06785 2518 ft 254 kts 63°
2026-04-17 11:31 54.77032 -6.04137 2512 ft 253 kts 68°
2026-04-17 11:31 54.77416 -6.01294 2500 ft 232 kts 101°
2026-04-17 11:31 54.76941 -5.98880 2535 ft 196 kts 138°
2026-04-17 11:32 54.75970 -5.97475 2561 ft 176 kts 156°
2026-04-17 11:32 54.74935 -5.96403 2538 ft 172 kts 158°
2026-04-17 11:32 54.73860 -5.95680 2521 ft 161 kts 182°
2026-04-17 11:32 54.72813 -5.96152 2527 ft 157 kts 214°
2026-04-17 11:33 54.72148 -5.97636 2538 ft 160 kts 242°
2026-04-17 11:33 54.71692 -5.99387 2525 ft 159 kts 240°
2026-04-17 11:33 54.71222 -6.01141 2521 ft 161 kts 240°
2026-04-17 11:33 54.70757 -6.02881 2393 ft 155 kts 240°
2026-04-17 11:34 54.70322 -6.04515 2203 ft 145 kts 240°
2026-04-17 11:34 54.69909 -6.06061 2021 ft 143 kts 240°
2026-04-17 11:34 54.69465 -6.07716 1826 ft 157 kts 240°
2026-04-17 11:34 54.69027 -6.09358 1608 ft 146 kts 239°
2026-04-17 11:35 54.68589 -6.10993 1400 ft 146 kts 240°
2026-04-17 11:35 54.68179 -6.12529 1207 ft 135 kts 238°
2026-04-17 11:35 54.67787 -6.13973 998 ft 131 kts 235°
2026-04-17 11:35 54.67366 -6.15382 805 ft 130 kts 239°
2026-04-17 11:36 54.67010 -6.16807 668 ft 129 kts 242°
2026-04-17 11:36 54.66655 -6.18215 478 ft 128 kts 239°
2026-04-17 11:36 54.66283 -6.19608 330 ft 128 kts 241°
2026-04-17 11:36 54.65920 -6.20954 282 ft 113 kts 239°
2026-04-17 11:37 54.65686 -6.21850 272 ft 27 kts 247°
2026-04-17 11:37 54.65626 -6.22036 273 ft 17 kts 245°
2026-04-17 11:37 54.65579 -6.22214 272 ft 16 kts 246°
2026-04-17 11:37 54.65530 -6.22391 274 ft 17 kts 244°
2026-04-17 11:38 54.65485 -6.22575 272 ft 16 kts 251°
2026-04-17 11:38 54.65537 -6.22717 272 ft 16 kts 340°
2026-04-17 11:38 54.65639 -6.22776 272 ft 15 kts 342°
2026-04-17 11:38 54.65729 -6.22760 274 ft 13 kts 48°
2026-04-17 11:39 54.65745 -6.22621 272 ft 11 kts 85°
2026-04-17 11:39 54.65753 -6.22491 272 ft 10 kts 82°
2026-04-17 11:39 54.65761 -6.22379 272 ft 9 kts 83°
2026-04-17 11:39 54.65769 -6.22264 272 ft 11 kts 83°
2026-04-17 11:40 54.65786 -6.22133 272 ft 12 kts 73°
2026-04-17 11:40 54.65822 -6.21991 272 ft 14 kts 65°
2026-04-17 11:40 54.65868 -6.21818 276 ft 15 kts 65°
2026-04-17 11:40 54.65910 -6.21664 272 ft 13 kts 65°
2026-04-17 11:41 54.65966 -6.21565 272 ft 11 kts
2026-04-17 11:41 54.66028 -6.21605 272 ft 8 kts 334°
2026-04-17 11:41 54.66046 -6.21620 272 ft 1 kts 335°
2026-04-17 11:41 54.66064 -6.21634 274 ft 2 kts 335°
2026-04-17 11:42 54.66073 -6.21642 275 ft 2 kts 335°
2026-04-17 11:42 54.66078 -6.21645 274 ft 0 kts 335°